Maxwell AFB, AL

5:59 AM CDT on June 28, 2017 (GMT -0500)
Maxwell Air Force Base

Weather History for KMXF - June, 2013

Change the Weather History Date:

Wednesday, June 12, 2013

  Actual Average Record
Temperature  
Mean Temperature 82 °F -  
Max Temperature 94 °F 87 °F 98 °F (2006)
Min Temperature 72 °F 69 °F 66 °F (2000)
Cooling Degree Days 18    
Growing Degree Days 32 (Base 50)    
Moisture  
Dew Point 71 °F    
Average Humidity 68    
Maximum Humidity 88    
Minimum Humidity 44    
Precipitation  
Precipitation 0.00 in - - ()
Sea Level Pressure  
Sea Level Pressure 30.05 in    
Wind  
Wind Speed 2 mph (SW)    
Max Wind Speed 8 mph    
Max Gust Speed -    
Visibility 10 miles    
Events      
Averages and records for this station are not official NWS values.
T = Trace of Precipitation, MM = Missing Value Source: NWS Daily Summary

Daily Weather History Graph

Daily Weather History Graph

Search for Another Location

Airport or City:

Trip Planner

Search our weather history database for the weather conditions in past years. The results will help you decide how hot, cold, wet, or windy it might be!

Date:

Astronomy

Jun. 12, 2013 Rise Set
Actual Time 5:37 AM CDT 7:53 PM CDT
Civil Twilight 5:09 AM CDT 8:21 PM CDT
Nautical Twilight 4:34 AM CDT 8:56 PM CDT
Astronomical Twilight 3:57 AM CDT 9:33 PM CDT
Moon 9:07 AM CDT (6/12) 10:39 PM CDT (6/12)
Length of Visible Light 15h 11m
Length of Day
14h 15m
Waxing Crescent, 14% of the Moon is Illuminated
Jun 12
Waxing Crescent
Jun 16
First Quarter
Jun 23
Full
Jun 29
Last Quarter
Jul 8
New

Hourly Weather History & Observations

Time (CDT) Temp. Heat Index Dew Point Humidity Pressure Visibility Wind Dir Wind Speed Gust Speed Precip Events Conditions
12:58 AM 75.7 °F - 70.7 °F 84% 30.06 in 10.0 mi SSE 1.2 mph - N/A   Clear
1:58 AM 74.8 °F - 71.1 °F 88% 30.04 in 10.0 mi Calm Calm - N/A   Clear
2:58 AM 73.9 °F - 70.2 °F 88% 30.04 in 10.0 mi SSW 1.2 mph - N/A   Clear
3:58 AM 74.1 °F - 69.8 °F 86% 30.04 in 10.0 mi Calm Calm - N/A   Clear
4:58 AM 73.6 °F - 69.6 °F 87% 30.04 in 10.0 mi South 2.3 mph - N/A   Clear
5:58 AM 72.0 °F - 68.4 °F 88% 30.06 in 9.0 mi South 2.3 mph - N/A   Clear
6:58 AM 75.2 °F - 70.9 °F 86% 30.08 in 10.0 mi SW 3.5 mph - N/A   Clear
7:58 AM 79.7 °F - 71.1 °F 75% 30.09 in 10.0 mi West 2.3 mph - N/A   Clear
8:58 AM 83.5 °F 88.5 °F 71.6 °F 67% 30.09 in 10.0 mi Variable 2.3 mph - N/A   Clear
9:58 AM 86.9 °F 93.3 °F 71.8 °F 61% 30.09 in 10.0 mi Variable 3.5 mph - N/A   Clear
10:55 AM 93.2 °F 104.3 °F 74.7 °F 55% 30.09 in 10.0 mi Variable 3.5 mph - N/A   Partly Cloudy
10:58 AM 93.2 °F 104.3 °F 74.7 °F 55% 30.09 in 10.0 mi Variable 3.5 mph - N/A   Partly Cloudy
11:58 AM 93.9 °F 104.0 °F 74.1 °F 52% 30.09 in 10.0 mi WSW 6.9 mph - N/A   Scattered Clouds
12:58 PM 91.4 °F 97.3 °F 70.2 °F 50% 30.09 in 10.0 mi NW 6.9 mph - N/A   Scattered Clouds
1:58 PM 92.8 °F 99.2 °F 70.3 °F 48% 30.08 in 10.0 mi West 5.8 mph - N/A   Clear
2:58 PM 92.8 °F 98.6 °F 69.8 °F 47% 30.06 in 10.0 mi Variable 3.5 mph - N/A   Clear
3:58 PM 93.7 °F 100.5 °F 70.7 °F 47% 30.04 in 10.0 mi WNW 4.6 mph - N/A   Clear
4:58 PM 93.7 °F 98.8 °F 69.1 °F 44% 30.01 in 10.0 mi WSW 8.1 mph - N/A   Clear
5:58 PM 92.8 °F 98.1 °F 69.3 °F 46% 30.01 in 10.0 mi Variable 4.6 mph - N/A   Clear
6:58 PM 90.9 °F 96.7 °F 70.3 °F 51% 30.01 in 10.0 mi WSW 3.5 mph - N/A   Clear
7:58 PM 85.8 °F 92.6 °F 72.7 °F 65% 29.99 in 10.0 mi WSW 1.2 mph - N/A   Clear
8:58 PM 80.4 °F 85.5 °F 74.3 °F 82% 30.00 in 10.0 mi Calm Calm - N/A   Clear
9:58 PM 79.9 °F - 73.9 °F 82% 30.01 in 10.0 mi WSW 2.3 mph - N/A   Clear
10:58 PM 77.5 °F - 72.5 °F 84% 30.00 in 10.0 mi Calm Calm - N/A   Clear
11:58 PM 76.3 °F - 71.8 °F 86% 30.00 in 10.0 mi SSW 2.3 mph - N/A   Clear